This is the latest recevied weather packets stored in our database for station/object OSTR-WX. If no packets are shown the sender has not sent any weather packets the latest 10 day(s).
| Time | Temp. | Humidity | Pressure | Rain* | Wind** | Luminosity | Snow |
|---|---|---|---|---|---|---|---|
| 1777631963 | 20° C | 43% | 1025.9 hPa | - | - | - | - |
| 1777631012 | 19.44° C | 44% | 1026.2 hPa | - | - | - | - |
| 1777631009 | 19.44° C | 44% | 1026.2 hPa | - | - | - | - |
| 1777631005 | 19.44° C | 44% | 1026.2 hPa | - | - | - | - |
| 1777630048 | 19.44° C | 44% | 1026.3 hPa | - | - | - | - |
| 1777629093 | 18.89° C | 45% | 1026.5 hPa | - | - | - | - |
| 1777629091 | 18.89° C | 45% | 1026.5 hPa | - | - | - | - |
| 1777628138 | 18.89° C | 46% | 1026.8 hPa | - | - | - | - |
| 1777628134 | 18.89° C | 46% | 1026.8 hPa | - | - | - | - |
| 1777627181 | 17.78° C | 48% | 1027.1 hPa | - | - | - | - |
| 1777627177 | 17.78° C | 48% | 1027.1 hPa | - | - | - | - |
| 1777626220 | 16.67° C | 49% | 1027.2 hPa | - | - | - | - |
| 1777625263 | 16.67° C | 49% | 1027.3 hPa | - | - | - | - |
| 1777624307 | 16.11° C | 53% | 1027.4 hPa | - | - | - | - |
| 1777624307 | 16.11° C | 53% | 1027.4 hPa | - | - | - | - |
| 1777623357 | 15.56° C | 56% | 1027.6 hPa | - | - | - | - |
| 1777623354 | 15.56° C | 56% | 1027.6 hPa | - | - | - | - |
| 1777623350 | 15.56° C | 56% | 1027.6 hPa | - | - | - | - |
| 1777622399 | 15.56° C | 56% | 1027.8 hPa | - | - | - | - |
| 1777622392 | 15.56° C | 56% | 1027.8 hPa | - | - | - | - |
| 1777621442 | 15° C | 58% | 1027.9 hPa | - | - | - | - |
| 1777621435 | 15° C | 58% | 1027.9 hPa | - | - | - | - |
| 1777620478 | 14.44° C | 58% | 1028 hPa | - | - | - | - |
| 1777619521 | 13.89° C | 62% | 1028.1 hPa | - | - | - | - |
| 1777618564 | 12.78° C | 61% | 1028.2 hPa | - | - | - | - |
* Rain since midnight (hover to see other rain measurements)
** Current wind speed in m/s (hover to see current wind gust speed)